Location: Muenchen
(48.1800°N, 11.5800°E)
Time: 00:20:35
(UTC+02:00)

Cosmos 1455 - Visible Passes

Search period start: 27 June 2017 00:00
Search period end: 07 July 2017 00:00
Orbit: 504 x 526 km, 82.5° (Epoch: 26 June)

Date Brightness Start Highest point End Pass type
(mag) Time Alt. Az. Time Alt. Az. Time Alt. Az.
27 Jun 4.6 00:38:21 10° NW 00:40:36 15° W 00:42:34 11° WSW visible
27 Jun 3.0 22:46:18 10° N 22:49:57 38° ENE 22:52:28 17° SE visible
28 Jun 4.4 00:22:42 10° NW 00:25:21 18° W 00:27:27 12° WSW visible
28 Jun 3.3 22:31:04 10° N 22:34:35 32° ENE 22:37:22 14° SE visible
29 Jun 4.2 00:07:07 10° NW 00:10:05 21° W 00:12:21 13° SW visible
29 Jun 3.5 22:15:52 10° NNE 22:19:11 27° ENE 22:22:16 11° SE visible
29 Jun 4.0 23:51:37 10° NNW 23:54:49 25° W 23:57:16 14° SW visible
30 Jun 3.7 22:00:41 10° NNE 22:03:49 23° ENE 22:06:53 10° SE visible
30 Jun 3.7 23:36:08 10° NNW 23:39:32 30° W 23:42:11 14° SSW visible
01 Jul 3.4 23:20:41 10° NNW 23:24:14 36° W 23:27:08 14° SSW visible
02 Jul 3.1 23:05:15 10° NNW 23:08:56 44° W 23:12:05 13° SSW visible
03 Jul 2.8 22:49:51 10° NNW 22:53:37 54° W 22:57:04 12° S visible
04 Jul 2.5 22:34:28 10° NNW 22:38:18 67° W 22:42:03 10° S visible
05 Jul 2.2 22:19:06 10° N 22:22:58 82° W 22:26:46 10° S visible
06 Jul 2.2 22:03:46 10° N 22:07:37 81° ENE 22:11:26 10° SSE visible
